Dewpoint
64 62 60 53 47 41 39 31 10 18 13 5 11 11 -1 18 23 18 15 21 16 45 53 54 55 46 46 46 47 50 58 51 50 39 40 63 68 70 69 71 71 71 71 71 71 72 71 73 72 72 72 72 72 72 71 71 71 71 70 70 70 70 70 69 70 70 70 70 69 69 69 69 68 67 67 67 67 67 68 67 68 67 67 68 68 70 70 70 70 70 70 70 70 70 70 69 69
51 54 55 51 44 39 30 29 19 20 16 13 11 14 10 19 26 17 16 18 17 39 54 59 59 59 60 59 58 58 57 62 61 62 65 67 69 70 70 71 71 71 71 71 71 70 70 71 72 72 72 72 72 71 71 71 71 70 70 70 70 70 70 70 70 70 69 69 69 69 69 69 68 68 68 68 68 68 69 67 67 67 67 68 69 69 69 70 71 70 70 70 70 70 69 69 69
49 49 48 46 39 39 36 28 6 22 6 2 4 12 18 13 13 16 18 19 19 18 22 50 57 57 56 56 47 53 52 63 63 65 66 68 66 70 70 71 71 71 71 71 71 70 70 71 72 72 72 72 71 71 71 71 70 71 70 70 70 70 69 69 69 70 69 69 69 69 69 69 68 68 68 68 68 68 69 68 67 68 68 68 68 68 68 69 69 70 70 69 69 69 69 69 70
52 50 43 40 31 36 29 21 17 13 2 4 4 7 11 12 10 14 18 21 21 15 33 48 50 59 57 44 57 59 60 61 64 65 65 66 67 70 71 71 71 71 71 71 71 70 70 72 72 72 72 71 71 71 71 71 71 71 70 70 70 70 70 69 70 69 69 69 69 69 69 69 68 68 68 68 68 68 69 69 68 67 68 68 68 69 69 68 69 69 69 69 68 69 70 70 70
46 49 47 42 35 31 26 23 24 16 -0 13 -9 6 16 18 17 18 19 22 23 18 29 51 53 59 61 60 60 54 59 63 65 65 65 67 69 71 71 71 70 70 70 70 70 70 70 71 72 72 72 71 71 71 71 70 70 70 70 69 70 70 70 70 70 69 69 69 69 69 69 69 69 68 68 68 68 68 68 69 69 69 69 69 69 70 70 69 69 69 69 68 69 70 70 70 70
42 44 46 45 35 33 27 22 23 16 8 13 1 7 19 19 19 20 23 25 23 29 24 50 45 53 58 61 62 60 63 61 64 65 66 67 69 71 71 71 70 70 70 70 70 70 70 72 72 72 71 71 71 71 70 69 70 69 69 69 70 70 70 70 69 69 69 69 69 69 69 69 68 68 68 69 69 69 70 70 70 70 69 69 68 68 68 69 69 69 68 68 69 70 70 70 69
37 42 40 32 31 32 24 22 19 20 16 15 11 11 19 22 22 24 25 24 37 55 43 47 58 56 55 61 61 64 65 65 65 65 67 69 70 70 70 70 70 70 70 70 70 70 70 72 72 72 71 71 71 70 70 70 70 70 70 70 70 70 70 70 69 69 69 69 69 68 68 69 68 69 71 71 70 70 70 69 69 69 69 69 69 69 69 69 69 68 68 69 70 70 70 69 69
42 39 36 30 25 26 24 26 24 24 18 22 22 23 24 25 26 26 26 23 19 18 56 58 58 51 58 62 58 63 66 67 67 68 69 69 70 70 70 70 69 70 70 71 71 70 72 72 72 72 72 71 70 70 70 70 70 70 70 70 70 70 70 70 70 69 70 69 68 69 68 69 70 70 70 70 70 70 70 70 70 69 69 69 69 69 69 69 68 68 69 70 70 70 70 70 69
36 33 33 26 21 25 23 20 19 26 25 26 25 28 36 31 31 29 25 26 23 21 23 55 55 46 59 60 61 64 66 68 68 69 69 70 70 70 70 69 69 69 69 70 70 71 70 72 72 72 72 72 71 70 70 70 70 70 70 70 70 70 70 69 69 70 70 70 69 69 69 69 69 70 69 70 71 71 70 70 70 69 69 69 69 69 69 69 69 69 69 70 70 70 70 70 69
36 32 26 26 23 14 19 17 17 11 17 18 18 19 20 21 21 25 22 21 20 32 46 60 56 47 60 61 61 63 65 68 68 69 69 70 70 70 71 70 70 69 69 69 70 71 70 72 72 72 72 72 71 70 70 70 70 70 70 70 71 71 70 70 70 71 70 70 70 69 70 70 70 70 70 71 71 70 70 70 70 69 69 69 69 69 69 69 68 69 69 69 70 70 69 69 69
30 30 30 17 18 13 11 10 15 16 16 19 22 23 23 23 23 21 22 19 38 30 58 60 54 60 59 61 63 65 68 68 67 68 70 70 70 70 70 70 70 70 69 70 71 71 71 70 73 72 72 72 71 71 71 71 71 71 71 71 71 71 71 71 71 70 71 70 70 69 70 70 70 71 71 71 71 71 70 70 70 69 69 69 69 70 70 70 69 69 69 69 70 70 69 69 69
29 29 20 19 19 12 11 11 12 14 20 23 19 20 18 16 21 19 20 18 34 45 55 59 52 60 58 60 62 66 67 68 68 69 69 70 69 70 70 70 69 69 70 70 71 71 70 70 71 73 73 72 72 72 72 72 72 71 72 72 71 71 71 71 71 71 71 70 70 70 70 70 71 71 71 71 71 71 70 70 70 69 68 68 69 70 70 69 69 70 70 70 70 69 69 69 68
30 26 21 17 16 17 22 21 16 26 22 18 16 16 15 14 16 15 17 43 53 53 53 57 61 58 57 60 64 65 66 68 69 69 70 69 69 69 70 70 70 70 70 71 70 70 70 70 69 70 72 73 72 72 72 72 72 72 72 72 72 72 71 71 70 71 71 71 70 70 71 71 71 71 71 71 71 70 70 70 69 69 68 69 69 70 70 69 69 70 70 70 70 70 69 69 68
31 28 22 11 23 21 18 11 20 14 12 18 19 15 11 13 17 15 44 52 54 52 59 58 60 60 62 61 62 63 65 68 69 70 69 69 69 69 70 71 71 70 71 71 70 70 70 69 69 70 71 72 71 72 72 72 72 72 72 72 72 72 71 71 71 71 71 71 70 70 71 71 71 71 71 71 70 70 70 70 70 69 70 69 70 70 69 69 70 70 71 71 70 70 69 68 68
32 28 25 25 22 21 20 9 15 16 12 18 15 12 11 34 38 52 50 52 55 60 62 62 61 54 51 57 60 61 65 67 69 69 69 69 69 70 70 70 70 71 70 70 70 70 69 68 69 71 71 71 72 72 70 73 72 72 72 72 72 72 72 71 71 71 71 71 71 70 71 71 71 71 71 70 70 70 70 70 70 69 69 69 70 70 70 70 70 70 70 71 71 70 68 68 68
34 27 27 24 19 19 16 18 19 18 15 16 12 13 11 26 37 51 54 54 58 61 61 57 62 57 59 56 60 63 65 68 69 69 69 69 69 70 70 70 70 70 70 70 70 70 70 69 70 70 70 70 71 71 71 71 72 72 72 72 72 72 71 71 71 71 70 70 70 70 70 71 71 71 71 70 70 70 69 69 70 70 70 69 70 70 70 70 70 71 70 70 70 70 69 68 68
28 29 25 24 18 18 17 17 18 13 14 13 12 14 11 10 34 59 60 61 57 59 62 63 62 64 62 61 63 64 66 68 69 69 68 67 68 68 69 70 69 69 69 70 70 71 71 70 70 70 70 70 71 71 71 71 71 72 72 72 72 72 72 71 71 71 70 70 70 71 71 71 71 71 71 69 70 69 69 69 70 70 70 69 69 70 70 70 70 70 70 70 70 69 69 68 67
31 29 26 22 19 17 18 18 17 11 11 12 13 14 11 7 53 56 57 59 60 61 61 62 63 63 64 64 65 65 66 67 68 66 66 65 66 66 66 67 68 67 68 70 70 70 71 71 70 70 70 70 70 70 70 70 70 71 71 71 71 71 71 70 70 70 70 70 70 71 70 70 70 70 70 70 69 69 69 69 69 70 70 70 70 69 70 70 70 70 70 69 69 68 67 65 67
30 29 26 18 20 17 20 18 17 13 14 14 14 16 9 8 40 44 51 57 57 58 60 61 62 64 64 64 64 65 66 66 67 67 66 65 64 65 65 66 66 67 68 68 69 70 70 70 69 69 70 70 70 70 70 70 70 70 70 70 70 70 70 70 71 70 70 69 69 69 70 70 70 70 70 69 70 70 69 69 70 70 69 69 69 69 70 70 70 70 70 69 69 68 65 65 65
28 26 22 21 23 21 19 18 17 15 15 15 16 14 10 10 12 25 46 55 56 54 59 60 61 62 63 63 64 65 65 66 66 66 65 65 65 65 66 66 66 67 67 67 68 70 71 70 70 70 70 71 70 70 70 70 70 70 69 69 69 70 70 70 70 70 70 70 70 70 69 69 70 71 70 71 70 69 69 69 69 70 69 69 69 69 70 70 69 69 69 68 67 66 66 65 64
28 25 21 20 21 20 20 19 19 17 15 16 14 13 9 8 14 37 53 47 47 53 56 57 62 62 63 63 64 64 65 65 65 66 66 65 66 66 66 66 66 66 67 68 68 68 70 71 71 71 70 70 70 70 70 69 70 69 69 69 69 69 69 70 70 71 70 71 71 71 69 69 69 70 71 69 69 69 69 68 68 67 68 68 68 68 67 66 67 66 67 66 66 66 65 65 65
25 26 26 23 16 17 19 18 17 17 15 14 13 12 9 9 39 52 51 12 20 41 49 58 64 63 63 63 63 64 64 64 65 65 65 65 65 65 67 67 68 68 68 67 67 68 70 71 71 69 71 70 70 70 70 71 71 70 69 69 69 69 69 70 70 70 71 72 71 70 70 69 70 71 71 70 69 69 70 68 68 67 67 68 68 65 65 66 66 65 66 66 66 66 66 65 65
20 20 23 26 23 23 21 18 15 13 13 13 13 12 11 9 10 41 45 23 31 49 48 61 63 64 64 64 63 64 64 64 64 64 65 65 65 66 67 67 66 67 68 68 69 68 68 70 70 71 69 70 70 70 70 70 70 70 70 70 70 70 69 70 70 71 71 71 70 70 69 69 69 69 69 69 69 69 68 68 68 67 68 67 67 64 64 65 65 65 66 66 66 65 64 64 63
21 18 19 18 20 22 21 18 16 14 14 15 13 12 11 10 9 28 43 33 52 62 49 63 64 64 63 62 64 64 64 64 65 65 65 65 65 65 67 67 66 68 67 67 66 67 68 68 68 69 69 70 69 69 69 69 70 70 70 70 71 71 70 70 70 71 70 70 70 69 69 69 69 68 69 69 69 68 67 68 68 67 67 67 67 65 63 63 64 64 66 66 64 64 63 63 62
23 22 23 22 21 19 18 16 15 14 14 14 13 11 11 10 8 17 21 51 62 62 63 63 63 64 63 63 63 64 64 64 65 65 65 64 65 66 66 67 68 67 66 64 64 67 68 69 69 69 69 69 69 70 68 68 69 70 70 70 70 70 70 70 70 69 70 69 69 69 69 69 68 67 68 67 69 68 67 67 67 66 67 66 67 65 64 63 63 63 64 64 65 64 64 64 62
22 25 20 17 19 19 18 17 16 13 11 11 11 9 10 10 8 7 20 62 63 63 63 63 63 63 62 63 63 64 64 64 65 65 65 65 65 65 65 65 65 64 64 65 64 66 68 69 69 69 68 69 69 69 68 68 69 69 69 69 70 70 69 70 70 69 68 69 69 69 68 68 67 66 67 69 67 68 67 68 67 67 67 67 66 65 64 62 62 62 63 63 62 65 64 64 63
23 23 22 23 22 20 16 12 11 10 9 11 8 8 8 9 7 5 50 61 63 63 63 63 63 62 62 63 63 64 64 64 64 65 64 64 64 64 65 65 65 65 65 65 65 66 67 68 68 69 69 69 69 69 68 69 69 68 69 69 71 70 70 70 70 69 69 69 68 69 68 67 68 67 68 68 67 68 68 68 67 67 66 66 67 66 66 64 63 63 63 63 64 64 65 64 63
19 21 18 19 19 12 12 9 9 8 7 11 8 7 9 9 7 6 54 62 63 62 63 62 62 62 62 63 63 64 64 64 64 64 64 64 63 63 64 63 65 65 66 65 66 67 68 68 68 69 69 69 68 69 69 69 68 68 69 70 70 70 70 70 69 69 69 69 69 69 69 68 68 68 68 67 67 68 68 68 68 67 67 67 67 67 65 65 64 64 66 68 68 68 66 66 66
17 14 15 11 8 8 9 8 8 10 6 10 10 7 6 7 6 10 50 62 62 61 62 62 61 62 62 63 63 63 63 63 63 63 64 64 64 64 64 64 65 65 65 66 67 67 67 68 68 68 68 69 69 69 69 69 69 69 69 69 69 68 70 68 69 69 69 69 69 69 69 68 68 69 69 68 67 67 68 68 67 67 67 66 67 67 67 67 66 66 66 67 66 66 65 65 64
11 9 10 12 11 10 8 7 9 7 6 9 9 5 7 8 8 9 28 61 60 60 61 61 61 61 62 63 63 62 63 63 63 63 63 63 64 64 64 64 65 65 64 66 66 66 67 68 67 68 68 68 69 69 69 69 69 69 69 69 69 68 69 68 68 69 69 69 69 69 68 68 68 68 68 68 68 68 67 67 67 67 67 67 67 67 65 66 67 67 66 65 64 65 65 65 64
16 9 9 14 12 10 5 8 10 5 10 9 8 9 6 7 9 17 34 61 60 58 60 61 61 62 62 63 63 62 63 63 63 62 63 63 64 64 65 65 65 65 65 65 65 66 67 68 68 67 68 69 69 69 69 68 69 68 68 68 68 68 68 68 68 68 69 69 69 68 68 68 68 68 68 69 69 68 68 68 68 68 68 67 67 67 66 67 67 67 65 64 64 64 64 64 63
12 11 11 9 10 7 7 19 10 5 7 10 7 12 6 9 18 34 30 56 59 59 59 60 61 62 62 62 63 62 63 63 63 63 62 63 63 63 64 65 65 65 65 65 65 66 66 68 68 68 68 68 68 69 69 68 68 68 68 68 68 68 68 67 68 68 68 69 69 68 68 68 68 68 68 69 69 69 69 68 68 68 68 67 67 67 67 66 67 66 66 66 64 63 63 63 64
12 11 18 9 6 7 4 6 7 9 8 8 7 3 6 10 27 36 50 57 57 57 58 60 61 62 62 62 63 62 62 63 63 62 62 62 63 63 64 63 64 65 65 65 65 66 66 67 67 68 68 68 68 68 68 67 68 67 67 67 67 67 67 67 69 68 68 68 68 68 68 68 67 67 67 67 68 68 67 68 69 67 68 67 67 67 67 67 67 66 66 66 66 63 62 63 63
11 13 14 15 7 7 3 7 6 8 8 6 7 5 14 29 39 42 43 52 56 55 58 59 60 61 62 62 63 62 62 62 62 61 62 62 62 63 63 63 64 65 65 65 66 65 66 66 67 67 67 67 68 68 67 67 67 68 67 67 67 67 67 68 68 68 67 69 68 68 67 67 66 66 66 66 66 67 66 68 69 68 67 67 67 66 67 67 68 67 65 65 65 64 62 63 63
13 15 16 10 10 12 5 6 8 11 8 6 9 14 30 40 43 46 46 48 54 53 54 58 60 61 62 62 61 62 62 62 63 62 62 63 63 63 63 63 64 65 65 66 66 66 66 66 66 67 67 67 67 67 67 67 67 67 67 67 66 66 67 68 68 68 67 68 67 66 66 66 66 66 66 66 66 67 66 66 67 67 66 67 66 66 65 66 67 67 66 63 64 64 64 63 63
9 12 12 10 10 7 6 8 11 12 12 7 11 21 37 42 45 47 49 50 49 50 56 58 58 59 61 61 61 61 61 61 62 62 63 63 63 63 63 62 63 64 65 66 66 66 66 66 66 67 67 67 67 67 66 66 66 66 65 65 65 65 66 66 67 67 68 67 67 67 66 66 67 66 65 66 66 65 65 66 65 65 66 65 66 65 65 65 66 66 66 63 63 63 63 63 64
12 12 10 8 7 8 10 11 11 12 15 22 36 39 41 43 46 48 50 51 51 51 52 53 56 58 59 60 61 61 62 62 61 62 63 63 63 63 63 63 63 64 65 66 66 66 66 66 66 65 66 66 66 66 66 66 65 65 65 65 65 65 65 66 66 66 67 66 67 66 66 67 66 66 66 66 65 65 65 66 65 65 65 65 65 65 66 66 66 66 64 64 63 63 63 64 65
9 9 9 9 8 5 9 10 14 16 24 33 38 40 42 44 47 48 49 51 50 51 51 52 53 55 58 59 60 60 60 60 61 61 62 63 63 63 63 63 63 63 63 64 65 65 65 65 66 66 66 66 66 66 66 66 65 65 65 65 66 66 65 65 65 66 67 66 66 66 66 66 66 66 66 65 65 66 65 66 65 66 65 65 65 66 65 65 64 64 64 63 63 62 62 63 63
16 10 12 9 9 10 12 15 18 17 32 35 39 41 43 44 46 48 49 50 51 52 52 52 53 54 55 57 58 60 60 60 60 61 62 62 63 63 63 63 63 64 64 64 65 65 65 65 65 65 65 65 65 66 66 64 65 66 66 66 66 66 67 67 66 66 66 67 67 66 66 66 66 66 66 65 64 65 66 67 66 66 66 65 65 65 64 64 64 64 64 62 62 62 62 63 63
19 14 12 9 11 8 8 17 20 19 26 36 41 40 42 44 46 47 49 49 50 51 51 52 53 54 54 54 55 55 57 58 59 60 61 61 62 63 63 62 63 64 64 64 64 64 64 65 65 65 65 65 65 66 65 65 64 65 66 66 66 66 66 66 66 66 66 66 66 66 66 66 66 66 65 64 65 65 65 66 67 67 66 66 65 65 64 64 64 64 64 64 62 61 61 62 63
23 17 10 8 10 8 10 13 21 26 34 40 38 37 38 41 44 45 47 48 48 49 50 51 53 54 55 55 56 56 56 57 58 60 61 61 61 62 62 63 63 63 63 63 63 63 64 64 64 65 65 65 65 65 65 66 66 66 66 66 66 66 66 65 64 65 65 65 65 65 65 65 66 66 65 65 65 65 65 65 66 66 67 66 65 65 64 64 63 64 64 64 63 61 61 62 62
16 23 13 9 10 9 11 19 20 30 32 27 12 22 31 39 43 45 46 47 47 48 49 50 52 54 54 55 56 57 58 58 57 58 60 61 61 61 62 62 63 62 63 63 63 63 63 64 64 64 65 65 65 65 65 65 65 64 64 63 63 63 62 63 63 63 64 64 64 66 65 64 65 66 65 64 64 65 65 65 65 65 65 65 65 65 65 64 64 63 63 63 63 64 62 61 61
16 13 15 12 10 13 13 16 16 21 22 21 22 22 28 36 40 44 46 46 46 48 49 50 52 53 54 55 56 57 58 59 58 58 59 60 61 61 61 61 61 62 62 62 62 62 62 62 63 63 64 64 64 65 66 66 65 65 65 64 63 62 63 64 65 66 65 65 65 64 65 65 64 65 65 64 64 64 65 64 64 64 64 65 64 65 64 64 63 62 63 63 63 63 63 60 61
11 15 15 12 11 11 12 14 16 17 24 20 23 29 27 32 38 43 46 45 46 46 49 51 51 53 54 55 56 57 57 58 59 59 59 60 59 59 59 60 60 60 61 62 62 62 62 62 63 63 64 64 64 65 65 65 65 65 65 65 64 64 63 63 65 65 66 65 64 64 65 65 64 65 65 64 65 64 64 64 64 64 64 64 64 64 64 63 63 63 64 63 63 63 63 61 61
11 18 13 11 9 10 16 15 18 22 18 12 19 20 29 32 37 43 45 43 45 46 47 50 51 52 54 55 56 56 57 58 58 58 58 58 59 59 59 59 60 60 61 62 62 62 63 63 63 63 63 64 65 65 65 65 65 65 64 64 64 64 65 64 65 65 65 64 64 65 65 65 65 65 65 65 64 64 64 64 64 64 64 64 63 63 64 64 64 64 64 63 63 63 63 63 62
11 20 19 20 20 20 17 18 14 21 18 13 17 22 22 31 38 39 43 43 45 47 49 51 53 54 54 55 55 56 56 57 57 57 57 57 58 58 59 59 59 60 60 61 62 62 62 63 63 63 63 64 64 64 65 64 64 64 64 64 63 64 65 65 65 65 64 64 63 63 63 64 65 65 65 64 64 64 64 64 64 64 65 64 64 63 64 64 64 64 64 64 64 64 64 63 63
17 17 16 16 16 19 23 23 19 19 11 17 21 28 24 25 36 42 44 44 46 48 50 52 51 52 52 53 53 54 55 56 56 56 56 57 57 58 58 58 59 60 61 61 61 61 62 62 62 62 63 64 64 64 64 64 64 64 64 63 63 63 64 64 64 62 61 63 63 62 63 64 64 65 65 64 65 65 65 65 65 64 65 65 64 63 64 63 64 64 64 64 64 64 63 63 63
17 15 16 15 17 20 19 20 23 13 11 21 30 28 28 23 36 41 45 47 49 49 50 49 49 50 51 51 52 52 53 53 53 53 54 55 55 56 57 58 58 59 60 60 60 61 61 61 61 62 62 63 64 64 66 66 65 65 65 64 64 65 64 63 63 61 62 63 63 62 63 63 63 64 64 64 64 64 65 65 65 65 64 65 64 64 64 64 64 64 64 64 63 64 64 63 63
15 16 15 13 14 16 13 14 11 9 12 26 24 26 28 38 40 43 47 47 49 50 51 50 49 50 50 51 51 52 51 51 51 52 52 53 53 54 55 56 56 57 58 59 59 60 60 60 60 61 61 62 63 63 64 65 66 65 64 64 64 65 65 64 64 64 64 63 63 63 62 62 63 63 63 63 64 65 64 64 65 64 64 65 65 64 64 64 64 64 64 63 64 63 62 63 62
14 12 17 9 11 11 10 9 16 14 14 19 31 31 39 41 43 47 46 49 51 51 50 50 50 49 50 50 51 51 50 51 50 50 51 51 52 53 53 54 54 55 55 56 57 57 57 58 58 58 59 61 62 63 63 63 64 65 64 64 64 65 65 65 65 64 64 64 64 63 63 63 62 62 62 63 64 64 64 65 65 65 65 65 64 65 65 65 65 63 64 63 63 63 63 64 63
12 15 11 17 15 10 11 8 10 10 16 24 32 25 35 34 41 47 48 51 51 50 50 50 50 50 50 49 49 49 49 49 49 49 50 50 51 52 52 53 53 53 54 55 55 55 55 56 57 57 58 59 60 61 62 62 63 63 64 64 63 63 65 64 64 64 64 65 64 63 62 64 63 64 62 64 64 64 64 65 65 65 65 65 65 65 65 65 66 64 64 64 64 63 63 63 63
13 14 14 16 16 26 10 19 20 18 20 20 32 31 39 41 46 48 51 49 48 49 49 49 49 49 48 47 47 47 48 48 48 48 49 49 50 50 51 51 52 52 53 53 53 54 54 55 55 56 57 58 59 60 61 61 62 62 63 63 63 63 63 64 65 65 64 65 64 63 63 64 63 63 64 64 63 63 64 64 64 64 65 65 65 65 65 65 65 65 64 65 65 63 63 63 64
17 12 14 15 21 20 20 21 25 28 24 28 31 37 42 45 48 47 50 48 47 49 48 47 47 47 46 46 46 46 47 47 47 47 47 48 48 49 49 50 50 51 51 52 52 52 53 53 54 54 55 56 56 56 58 59 61 61 61 61 63 63 63 63 63 63 63 63 63 63 63 63 62 63 63 63 63 63 64 64 63 64 65 65 65 65 65 65 65 65 65 65 65 64 64 63 64
14 14 14 19 19 22 22 13 17 19 13 25 34 35 37 36 35 46 48 46 47 46 46 45 46 45 45 45 45 45 46 45 46 46 46 47 48 48 48 49 49 50 50 50 51 51 52 52 52 53 53 53 54 55 56 57 59 61 61 61 62 63 62 62 62 63 63 62 62 62 63 63 63 63 63 63 63 63 64 64 64 64 64 65 65 65 65 65 65 65 65 65 65 65 64 64 64
13 12 16 13 15 13 19 20 13 14 23 28 32 34 36 35 37 43 45 46 46 46 45 44 44 44 44 44 44 44 44 45 45 45 45 45 46 47 47 47 47 48 49 49 50 50 51 51 51 51 52 52 53 54 55 56 57 59 61 61 62 62 62 62 62 62 62 61 61 62 62 62 63 63 63 63 63 63 63 64 64 65 64 64 64 64 65 65 65 65 64 65 65 64 63 63 63
15 16 13 17 22 23 12 16 20 18 24 28 30 33 31 38 38 42 45 46 47 44 44 43 43 43 43 43 44 44 44 44 44 44 44 44 44 45 45 46 46 47 47 48 49 49 49 50 50 51 52 52 53 53 54 55 56 57 59 61 61 61 61 62 62 62 61 61 61 62 62 63 63 63 62 62 62 63 63 64 64 64 64 65 65 64 65 65 65 65 64 63 63 63 62 62 62
14 16 16 18 25 20 18 22 15 19 26 26 29 27 30 38 41 42 45 47 46 44 43 43 43 43 43 43 43 43 43 43 43 43 43 43 43 43 44 44 44 45 46 47 48 48 48 49 49 49 49 50 51 52 53 53 54 56 57 59 62 62 62 62 63 62 62 61 61 61 62 62 62 62 62 62 62 63 63 63 63 63 63 64 64 65 65 65 65 64 64 64 63 61 61 62 62
15 16 15 17 16 13 11 13 25 28 26 27 27 27 34 40 46 47 48 48 45 44 43 42 42 42 42 43 42 42 42 42 42 43 43 42 42 43 43 43 44 44 44 45 46 47 47 48 48 48 48 48 49 50 51 52 54 55 56 58 60 61 61 61 62 62 62 61 61 61 62 62 62 62 62 61 61 63 63 63 62 62 63 63 64 64 64 64 64 64 64 63 63 62 62 62 63